sat.trackr.live / text

‹ back to catalog

STARLINK-11245 [DTC]

NORAD 60925 · 2024-155B

PAYLOAD ACTIVE UNKNOWN

§ Identity

Operator
Country
US
Launch date
2024-08-31
Launch site
AFWTR
Launch vehicle
Mass (kg)
RCS (m²)

Purposes: comms

External: N2YO · Heavens-Above · Gunter

§ Orbital elements

Epoch: 2026-09-21T19:34:35.995296Z

Period
91.74 min
Inclination
53.1600°
Eccentricity
0.0001290
Mean motion
15.69710003 rev/d
Perigee alt
358.9 km
Apogee alt
360.6 km
Semi-major
6,737.9 km
B*
-1.4832e-7
RAAN
94.6126°
Arg perigee
69.2455°
Mean anomaly
290.8701°
Rev number
11,920

§ Raw data

STARLINK-11245 [DTC]1 60925U 24155B   26264.81569439 -.00000607  00000+0 -14832-6 0  99922 60925  53.1600  94.6126 0001290  69.2455 290.8701 15.69710003119202

JSON: /api/v1/satellites/60925 · /tle

For live sub-satellite position, see the globe view (requires WebGL).

§ Visibility from observer

Set your observer location to see the next 7 days of passes ≥ 10°. The values pass through the URL so the page stays shareable.

No JS? Fill the form by hand. The geolocation button needs JavaScript.